Weather History for Bozeman, MT

Change the Weather History Date:

Tuesday, February 12, 2013

  Actual Average Record
Temperature  
Mean Temperature 24 °F 26 °F  
Max Temperature 37 °F 39 °F 58 °F (1983)
Min Temperature 10 °F 14 °F -36 °F (1949)
Degree Days  
Heating Degree Days 41    
Month to date heating degree days 480  
Since 1 July heating degree days 5115  
Cooling Degree Days 0    
Month to date cooling degree days 0  
Year to date cooling degree days 0  
Moisture  
Dew Point 17 °F    
Average Humidity 68    
Maximum Humidity 84    
Minimum Humidity 52    
Precipitation  
Precipitation 0.00 in 0.01 in 0.25 in (1936)
Month to date precipitation T 0.16  
Year to date precipitation 0.24 0.64  
Snow  
Snow 0.00 in 0.10 in 2.40 in (1990)
Month to date snowfall T 1.9  
Since 1 July snowfall 16.9 19.3  
Snow Depth 5.00 in    
Sea Level Pressure  
Sea Level Pressure 30.24 in    
Wind  
Wind Speed 2 mph (SSE)    
Max Wind Speed 12 mph    
Max Gust Speed 15 mph    
Visibility 10 miles    
Events      
T = Trace of Precipitation, MM = Missing Value Source: NWS Daily Summary

Daily Weather History Graph

Daily Weather History Graph

Search for Another Location

Airport:

Trip Planner

Search our weather history database for the weather conditions in past years. The results will help you decide how hot, cold, wet, or windy it might be!

Date:

Astronomy

Feb. 12, 2013 Rise Set
Actual Time 7:30 AM MST 5:47 PM MST
Civil Twilight 7:00 AM MST 6:18 PM MST
Nautical Twilight 6:25 AM MST 6:53 PM MST
Astronomical Twilight 5:50 AM MST 7:27 PM MST
Moon 8:18 AM MST (2/12) 9:05 PM MST (2/12)
Length of Visible Light 11h 18m
Length of Day
10h 16m
Waxing Crescent, 8% of the Moon is Illuminated
Feb 12
Waxing Crescent
Feb 17
First Quarter
Feb 25
Full
Mar 4
Last Quarter
Mar 11
New

Hourly Weather History & Observations

Time (MST) Temp. Windchill Dew Point Humidity Pressure Visibility Wind Dir Wind Speed Gust Speed Precip Events Conditions
12:56 AM 14.0 °F - 8.1 °F 77% 30.25 in 10.0 mi Calm Calm - N/A   Partly Cloudy
1:56 AM 14.0 °F - 8.1 °F 77% 30.25 in 10.0 mi Calm Calm - N/A   Clear
2:56 AM 14.0 °F - 8.1 °F 77% 30.25 in 10.0 mi Calm Calm - N/A   Clear
3:56 AM 12.9 °F 6.9 °F 8.1 °F 81% 30.25 in 10.0 mi SSW 3.5 mph - N/A   Overcast
4:56 AM 14.0 °F 5.1 °F 8.1 °F 77% 30.26 in 10.0 mi SE 5.8 mph - N/A   Overcast
5:56 AM 16.0 °F - 10.0 °F 77% 30.27 in 10.0 mi Calm Calm - N/A   Overcast
6:56 AM 17.1 °F - 10.9 °F 77% 30.30 in 10.0 mi Calm Calm - N/A   Overcast
7:56 AM 19.0 °F - 10.9 °F 71% 30.30 in 10.0 mi Calm Calm - N/A   Overcast
8:56 AM 19.9 °F 14.9 °F 12.9 °F 74% 30.31 in 10.0 mi ESE 3.5 mph - N/A   Overcast
9:56 AM 23.0 °F - 15.1 °F 72% 30.32 in 10.0 mi Calm Calm - N/A   Overcast
10:56 AM 23.0 °F - 16.0 °F 74% 30.31 in 10.0 mi Calm Calm - N/A   Overcast
11:56 AM 28.0 °F - 19.0 °F 69% 30.27 in 10.0 mi Calm Calm - N/A   Overcast
12:56 PM 32.0 °F - 19.0 °F 59% 30.25 in 10.0 mi Calm Calm - N/A   Overcast
1:56 PM 33.1 °F - 19.9 °F 59% 30.23 in 10.0 mi Calm Calm - N/A   Overcast
2:56 PM 35.1 °F 32.2 °F 21.9 °F 59% 30.20 in 10.0 mi East 3.5 mph - N/A   Overcast
3:56 PM 36.0 °F - 23.0 °F 59% 30.20 in 10.0 mi Calm Calm - N/A   Overcast
4:56 PM 36.0 °F - 21.9 °F 57% 30.22 in 10.0 mi Calm Calm - N/A   Overcast
5:56 PM 37.0 °F - 21.9 °F 54% 30.19 in 10.0 mi Calm Calm - N/A   Overcast
6:56 PM 35.1 °F - 24.1 °F 64% 30.20 in 10.0 mi Calm Calm - N/A   Overcast
7:56 PM 37.0 °F 31.6 °F 23.0 °F 57% 30.19 in 10.0 mi West 6.9 mph - N/A   Overcast
8:56 PM 37.0 °F 31.0 °F 23.0 °F 57% 30.17 in 10.0 mi West 8.1 mph - N/A   Overcast
9:56 PM 35.1 °F 32.2 °F 24.1 °F 64% 30.17 in 10.0 mi ESE 3.5 mph - N/A   Overcast
10:56 PM 36.0 °F 33.3 °F 21.9 °F 57% 30.15 in 10.0 mi South 3.5 mph - N/A   Overcast
11:56 PM 33.1 °F 30.0 °F 24.1 °F 70% 30.15 in 10.0 mi NE 3.5 mph - N/A   Overcast